Regional Weather Roundup
Issued by NWS Memphis, TN

Home | Current Version | Previous Version | Text Only | Print | Product List | Glossary On
Versions: 1 2 3 4 5 6 7 8 9 10 11 12 13 14 15 16 17 18 19 20 21 22 23 24 25 26 27 28 29 30 31 32 33 34 35 36 37 38 39 40 41 42 43 44 45 46 47 48 49 50
000
ASUS44 KMEG 271210
RWRMEG
MEMPHIS CWA HOURLY WEATHER ROUNDUP
NATIONAL WEATHER SERVICE MEMPHIS TN
700 AM CDT TUE SEP 27 2016

...WEST TENNESSEE...

CITY           SKY/WX    TMP DP  RH WIND       PRES   REMARKS
MEMPHIS INTL   PTCLDY    59  56  89 N5        30.06S
6HR MIN TEMP:  59; 6HR MAX TEMP:  65;

NWS MEMPHIS      N/A     55 N/A N/A MISG        N/A
JACKSON        CLEAR    N/A N/A N/A W3        30.06S
BOLIVAR        CLEAR     54  52  94 CALM      30.05S
LEXINGTON      MOCLDY    52  52 100 N3        30.05R
DYERSBURG      CLEAR    N/A N/A N/A MISG        N/A
UNION CITY       N/A     45  45 100 CALM      30.04F VSB 1/2
PARIS            N/A     43  43 100 CALM      30.06S
HUNTINGDON     FOG       46  46 100 CALM      30.04F VSB 1/4


...EASTERN ARKANSAS...

CITY           SKY/WX    TMP DP  RH WIND       PRES   REMARKS
JONESBORO      CLEAR     49  46  90 W3        30.07F
6HR MIN TEMP:  48; 6HR MAX TEMP:  60;

WEST MEMPHIS   CLEAR     53  52  96 CALM      30.06S
6HR MIN TEMP:  53; 6HR MAX TEMP:  58;

BATESVILLE     CLEAR     50  46  87 NW5       30.10S
6HR MIN TEMP:  50; 6HR MAX TEMP:  54;

NEWPORT        CLEAR     51  48  89 W5        30.09S
6HR MIN TEMP:  50; 6HR MAX TEMP:  57;

WALNUT RIDGE   CLEAR     50  45  81 CALM      30.08S
6HR MIN TEMP:  50; 6HR MAX TEMP:  57;

BLYTHEVILLE    CLEAR     50  48  93 NW5       30.06F
6HR MIN TEMP:  50; 6HR MAX TEMP:  55;

SEARCY         CLOUDY    50  49  96 CALM      30.11S
6HR MIN TEMP:  50; 6HR MAX TEMP:  59;

STUTTGART      CLOUDY    55  48  76 N6        30.09R
6HR MIN TEMP:  55; 6HR MAX TEMP:  61;

PINE BLUFF     MOCLDY    58  54  86 N7        30.08S
6HR MIN TEMP:  58; 6HR MAX TEMP:  63;

MONTICELLO     PTCLDY    61  56  83 VRB3      30.06S
6HR MIN TEMP:  61; 6HR MAX TEMP:  64;



...NORTH MISSISSIPPI...

CITY           SKY/WX    TMP DP  RH WIND       PRES   REMARKS
TUPELO         MOCLDY    61  54  77 N8        30.03R
6HR MIN TEMP:  61; 6HR MAX TEMP:  65;

OXFORD         MOCLDY    57  52  82 N5        30.06F
BATESVILLE     MOCLDY    57  54  88 N3        30.06S
6HR MIN TEMP:  57; 6HR MAX TEMP:  63;

OLIVE BRANCH   PTCLDY   N/A N/A N/A CALM      30.06
TUNICA         MOCLDY    54  54 100 N3        30.07R
CLARKSDALE       N/A     59  59 100 N6        30.06S
CORINTH        MOCLDY    55  54  94 NW3       30.04S
GREENWOOD      CLOUDY    62  56  80 N5        30.03R
6HR MIN TEMP:  62; 6HR MAX TEMP:  67;

COLUMBUS       MOCLDY    64  59  83 N6        29.99S
6HR MIN TEMP:  64; 6HR MAX TEMP:  67;

STARKVILLE     CLOUDY    63  59  88 CALM      30.02S
GOLDEN TRIANGL CLEAR     64  55  72 N7        30.00R


...SOUTHEAST MISSOURI...

CITY           SKY/WX    TMP DP  RH WIND       PRES   REMARKS
KENNETT        CLEAR     50  50 100 CALM      30.06S
WEST PLAINS    CLEAR     47  42  83 CALM      30.11S
6HR MIN TEMP:  47; 6HR MAX TEMP:  51;

POPLAR BLUFF   CLEAR     49  47  93 CALM      30.07R
6HR MIN TEMP:  49; 6HR MAX TEMP:  53;

CAPE GIRARDEAU PTCLDY    45  44  97 CALM      30.06S FOG
6HR MIN TEMP:  44; 6HR MAX TEMP:  49;



...NORTHWEST ALABAMA...

CITY           SKY/WX    TMP DP  RH WIND       PRES   REMARKS
MUSCLE SHOALS  CLEAR     63  53  70 VRB5      30.04R
6HR MIN TEMP:  63; 6HR MAX TEMP:  66;



...MIDDLE TENNESSEE...

CITY           SKY/WX    TMP DP  RH WIND       PRES   REMARKS
NASHVILLE      PTCLDY    56  52  86 CALM      30.06S
6HR MIN TEMP:  54; 6HR MAX TEMP:  58;

CLARKSVILLE    LGT RAIN  46  44  93 CALM      30.05F VSB 1/4
6HR MIN TEMP:  44; 6HR MAX TEMP:  52; 6HR PCP:  0.01;

COLUMBIA       CLEAR    N/A N/A N/A CALM      30.03F


...WESTERN KENTUCKY...

CITY           SKY/WX    TMP DP  RH WIND       PRES   REMARKS
PADUCAH        CLEAR     45  43  93 CALM      30.04F FOG
6HR MIN TEMP:  44; 6HR MAX TEMP:  49;

FORT CAMPBELL  FOG       48  48 100 CALM      30.04F VSB<1/4
6HR MIN TEMP:  48; 6HR MAX TEMP:  55;



...CENTRAL ARKANSAS...

CITY           SKY/WX    TMP DP  RH WIND       PRES   REMARKS
LITTLE ROCK    PTCLDY    59  49  69 NW5       30.10R
6HR MIN TEMP:  58; 6HR MAX TEMP:  64;



SKY/WX REPORTED AS FAIR MEANS FEW OR NO CLOUDS BELOW
12 THOUSAND FEET.





USA.gov is the U.S. government's official web portal to all federal, state and local government web resources and services.